SCP
0 0 0 0 0 0 0 0 0 0 0 0 0 0 0 0 0 0 0 0 0 0
0 0 0 0 0 0 0 0 0 0 0 0 0 0 0 0 0 0 0 0 0 0
0 0 0 0 0 0 0 0 0 0 0 0 0 0 0 0 0 0 0 0 0 0
0 0 0 0 0 0 0 0 0 0 0 0 0 0 0 0 0 0 0 0 0 0
0 0 0 0 0 0 0 0 0 0 0 0 0 0 0 0 0 0 0 0 0 0
0 0 0 0 0 0 0 0 0 0 0 0 0 0 0 0 0 0 0 0 0 0
0 0 0 0 0 0 0 0 0 0 0 0 0 0 0 0 0 0 0 0 0 0
0 0 0 0 0 0 0 0 0 0 0 0 0 0 0 0 0 0 0 0 0 0
0 0 0 0 0 0 0 0 0 0 0 0 0 0 0 0 0 0 0 0 0 0
0 0 0 0 0 0 0 0 0 0 0 0 0 0 0 0 0 0 0 0 0 0
0 0 0 0 0 0 0 0 0 0 0 0 0 0 0 0 0 0 0 0 0 0
0 0 0 0 0 0 0 0 0 0 0 0 0 0 0 0 0 0 0 0 0 0
0 0 0 0 0 0 0 0 0 0 0 0 0 0 0 0 0 0 0 0 0 0
0 0 0 0 0 0 0 0 0 0 0 0 0 0 0 0 0 0 0 0 0 0
Wind_Speed_500mb
40 44 48 51 53 52 50 52 53 55 51 52 58 61 67 64 61 61 64 64 65 71
33 40 46 49 53 56 57 58 61 63 63 67 60 61 63 69 68 65 65 65 64 61
19 24 26 29 35 41 45 47 49 52 56 61 62 66 71 69 63 63 59 54 54 59
12 13 18 20 21 21 22 25 26 27 29 36 46 54 61 66 71 75 73 66 66 68
14 12 10 10 11 13 17 22 24 25 25 28 31 35 39 43 45 47 49 54 57 60
7 7 9 12 15 17 20 25 29 31 32 35 37 39 41 44 46 48 50 51 54 56
6 10 12 16 19 21 24 26 31 34 35 39 41 42 43 44 44 46 48 50 53 56
6 10 13 18 21 24 26 29 31 33 33 35 40 44 45 47 48 50 50 48 48 52
10 14 18 21 23 26 28 30 33 35 38 40 44 48 51 54 56 56 58 59 57 57
16 20 23 26 28 30 33 36 38 41 45 47 52 56 57 59 60 61 60 61 63 65
22 26 28 30 34 36 39 43 46 47 49 50 52 58 61 63 65 66 66 64 65 68
23 27 30 33 37 41 43 43 44 46 49 53 52 56 59 63 65 66 66 66 67 69
29 33 35 37 39 40 43 43 45 45 47 50 52 53 56 60 63 66 68 64 65 66
34 36 39 39 42 44 46 48 49 51 49 49 51 51 55 58 61 66 69 69 69 68
Wind_Direction_500mb
252 263 267 271 270 273 273 274 279 284 280 279 278 282 285 286 289 290 290 288 285 286
258 260 264 266 268 271 272 273 272 273 276 279 276 278 279 281 284 288 286 285 287 289
253 265 267 267 272 278 280 279 278 277 275 272 274 276 277 277 280 282 279 280 286 281
267 277 293 289 291 295 292 288 289 291 291 289 282 280 280 279 278 278 279 280 285 285
213 214 232 263 274 284 297 304 307 307 304 299 296 295 295 295 294 292 290 289 288 289
199 240 268 281 288 293 296 299 300 304 306 306 304 303 302 304 304 304 304 304 304 304
245 272 282 290 295 303 308 310 312 314 316 315 313 312 311 309 308 307 306 306 304 301
300 302 313 316 318 321 320 320 320 319 318 316 313 312 311 309 308 306 303 300 297 294
315 314 315 318 317 316 313 311 310 309 310 309 307 307 305 305 304 305 305 305 304 302
321 319 314 312 310 310 308 309 309 308 307 307 305 301 299 300 302 300 302 304 305 303
311 309 308 309 309 308 308 308 309 307 305 302 303 304 305 304 304 305 307 307 305 305
304 306 310 308 307 305 305 305 304 305 306 306 307 305 303 300 300 300 301 302 303 304
314 313 311 310 309 309 310 310 307 307 308 308 308 306 308 307 306 306 304 304 303 302
318 316 314 315 313 312 310 309 309 311 311 310 310 309 309 309 310 310 309 309 308 307
Wind_Speed_850mb
40 44 48 51 53 52 50 52 53 55 51 52 58 61 67 64 61 61 64 64 65 71
33 40 46 49 53 56 57 58 61 63 63 67 60 61 63 69 68 65 65 65 64 61
19 24 26 29 35 41 45 47 49 52 56 61 62 66 71 69 63 63 59 54 54 59
12 13 18 20 21 21 22 25 26 27 29 36 46 54 61 66 71 75 73 66 66 68
14 12 10 10 11 13 17 22 24 25 25 28 31 35 39 43 45 47 49 54 57 60
7 7 9 12 15 17 20 25 29 31 32 35 37 39 41 44 46 48 50 51 54 56
6 10 12 16 19 21 24 26 31 34 35 39 41 42 43 44 44 46 48 50 53 56
6 10 13 18 21 24 26 29 31 33 33 35 40 44 45 47 48 50 50 48 48 52
10 14 18 21 23 26 28 30 33 35 38 40 44 48 51 54 56 56 58 59 57 57
16 20 23 26 28 30 33 36 38 41 45 47 52 56 57 59 60 61 60 61 63 65
22 26 28 30 34 36 39 43 46 47 49 50 52 58 61 63 65 66 66 64 65 68
23 27 30 33 37 41 43 43 44 46 49 53 52 56 59 63 65 66 66 66 67 69
29 33 35 37 39 40 43 43 45 45 47 50 52 53 56 60 63 66 68 64 65 66
34 36 39 39 42 44 46 48 49 51 49 49 51 51 55 58 61 66 69 69 69 68
Wind_Direction_850mb
252 263 267 271 270 273 273 274 279 284 280 279 278 282 285 286 289 290 290 288 285 286
258 260 264 266 268 271 272 273 272 273 276 279 276 278 279 281 284 288 286 285 287 289
253 265 267 267 272 278 280 279 278 277 275 272 274 276 277 277 280 282 279 280 286 281
267 277 293 289 291 295 292 288 289 291 291 289 282 280 280 279 278 278 279 280 285 285
213 214 232 263 274 284 297 304 307 307 304 299 296 295 295 295 294 292 290 289 288 289
199 240 268 281 288 293 296 299 300 304 306 306 304 303 302 304 304 304 304 304 304 304
245 272 282 290 295 303 308 310 312 314 316 315 313 312 311 309 308 307 306 306 304 301
300 302 313 316 318 321 320 320 320 319 318 316 313 312 311 309 308 306 303 300 297 294
315 314 315 318 317 316 313 311 310 309 310 309 307 307 305 305 304 305 305 305 304 302
321 319 314 312 310 310 308 309 309 308 307 307 305 301 299 300 302 300 302 304 305 303
311 309 308 309 309 308 308 308 309 307 305 302 303 304 305 304 304 305 307 307 305 305
304 306 310 308 307 305 305 305 304 305 306 306 307 305 303 300 300 300 301 302 303 304
314 313 311 310 309 309 310 310 307 307 308 308 308 306 308 307 306 306 304 304 303 302
318 316 314 315 313 312 310 309 309 311 311 310 310 309 309 309 310 310 309 309 308 307